Weather in Nome

United States     64°30′34″N   165°25′51″W
В апреле 2022 года жителям России запретили посещать сайт meteo.paraplan.net по решению Генеральной прокуратуры. Аудитория сайта уменьшилась в 10 раз. Владельцы сайта не видят смысла в поддержке погодного сервера в таких условиях. Сайт будет закрыт в октябре.
temp.,
°C
wind,
m/s
gust,
m/s
humid.,
%
clouds,
%
prec.,
mm/h
press.,
hPa
HPBL,
m
4 october, tue
tue401:00+4ne4494100 0.2 1009128
04:00+5ne3493100 0.4 101092
07:00+5ne2294100 0.6 101193
10:00+5n2292100 0.6 101268
13:00+6n1186100 0.0 1014114
16:00+7wnw2281100 0.0 1015335
19:00+7nw34808 0.0 1016158
22:00+4nw33845 0.0 1017107
5 october, wed
wed501:00+3nw22835 0.0 101892
04:00+2nw2383100 0.0 1018113
07:00+2n1181100 0.0 101791
10:00+2s01785 0.0 1017130
13:00+5se2470100 0.0 1015397
16:00+6sse6873100 0.0 1011603
19:00+6sse81278100 0.0 1008546
22:00+6sse91676100 0.3 1004712
6 october, thu
thu601:00+6s122091100 3.6 10011170
04:00+6sw121582100 6.8 10011023
07:00+5wsw912755 0.1 1004663
10:00+5sw10137811 0.1 1007669
13:00+6sw9117711 0.0 1009939
16:00+6sw89735 0.0 1009734
19:00+5sw79775 0.0 1008561
22:00+5ssw7107885 0.0 1008451
7 october, fri
fri701:00+5sw81284100 0.9 1008539
04:00+5wsw8118184 1.4 1008634
07:00+4wsw698514 0.4 1009387
10:00+5sw7108589 0.4 1011440
13:00+6sw81180100 0.1 1011964
16:00+6ssw8117993 0.2 1011990
19:00+6ssw8108577 0.4 1010669
22:00+6s71290100 1.1 1009790
8 october, sat
sat801:00+6ssw71190100 0.9 1008880
04:00+5wsw4790100 2.1 1007688
07:00+3nw1291100 0.8 1006387
10:00+3n2392100 0.9 1006381
13:00+2nnw4696100 5.6 1005295
16:00+3nw6987100 7.3 1005737
19:00+2nw51086100 2.6 1007777
22:00